Starlink 33566

operational
NORAD ID: 62100 Int'l Des: 2024-220 Owner: SPXS Country: US Constellation: starlink
LEOCIRCULAR

About Starlink 33566

Description loading...

Live Position

Loading 3D Globe...

Upcoming Passes

Altitude History

Altitude vs Time

uPlot chart will show altitude changes over time

Two-Line Element Set

1 62100U 24220N 26036.92982161 .00043912 00000-0 15933-2 0 9996
2 62100 42.9982 10.1935 0001542 268.2120 91.8555 15.27631812 68505
Epoch: Feb 5, 2026 • Age: 7 hours

Current Status

Altitude 487.0 km
Velocity 7.63 km/s
Sub-Earth Point 43.15°N, 113.49°W
Launch Date Nov 25, 2024
Age 1.1 years
Type internet

Technical Details

Classification Payload
Mass 530.00 kg
Dry Mass 500.00 kg
Total Mass 530.00 kg
Length 0.30 m
Diameter 4.10 m
Span 29.00 m
Shape Box + pan
Manufacturer SPXS
Bus Type Starlink V2MO
Phase Status In Orbit
Owner/State SPXS/US

Large Constellations

Loading constellations...